Location: Buckland
(65.9785°N, 161.1281°W)
Time: 10:19:46
(UTC+00:00)

PRISM - Visible Passes

Search period start: 17 January 2021 00:00
Search period end: 27 January 2021 00:00
Orbit: 564 x 586 km, 98.2° (Epoch: 16 January)

Date Brightness Start Highest point End Pass type
(mag) Time Alt. Az. Time Alt. Az. Time Alt. Az.
17 Jan ? 14:32:31 10° NNE 14:33:03 13° NNE 14:33:03 13° NNE visible
17 Jan ? 16:08:04 10° N 16:09:17 16° N 16:09:17 16° N visible
17 Jan ? 17:43:53 10° N 17:45:23 12° NNW 17:45:30 12° NNW visible
18 Jan ? 14:35:54 10° NNE 14:36:31 14° NNE 14:36:31 14° NNE visible
18 Jan ? 16:11:27 10° N 16:12:45 17° N 16:12:45 17° N visible
18 Jan ? 17:47:17 10° N 17:48:42 12° NNW 17:48:59 12° NNW visible
19 Jan ? 14:39:16 10° NNE 14:39:59 15° NNE 14:39:59 15° NNE visible
19 Jan ? 16:14:50 10° N 16:16:13 17° N 16:16:13 17° N visible
19 Jan ? 17:50:41 10° N 17:52:02 11° NNW 17:52:27 11° NNW visible
20 Jan ? 14:42:39 10° NNE 14:43:27 15° NNE 14:43:27 15° NNE visible
20 Jan ? 16:18:13 10° N 16:19:42 17° N 16:19:42 17° N visible
20 Jan ? 17:54:05 10° N 17:55:21 11° NNW 17:55:56 11° NNW visible
21 Jan ? 14:46:02 10° NNE 14:46:57 16° NNE 14:46:57 16° NNE visible
21 Jan ? 16:21:36 10° N 16:23:11 17° N 16:23:11 17° N visible
21 Jan ? 17:57:29 10° N 17:58:40 11° NNW 17:59:25 11° NNW visible
22 Jan ? 14:49:24 10° NNE 14:50:26 17° NNE 14:50:26 17° NNE visible
22 Jan ? 16:24:59 10° N 16:26:40 18° NNW 16:26:40 18° NNW visible
22 Jan ? 18:00:53 10° N 18:02:00 11° NNW 18:02:53 10° NNW visible
23 Jan ? 13:17:35 10° NNE 13:17:41 11° NNE 13:17:41 11° NNE visible
23 Jan ? 14:52:46 10° NNE 14:53:55 18° NNE 14:53:55 18° NNE visible
23 Jan ? 16:28:22 10° N 16:30:09 18° NNW 16:30:09 18° NNW visible
23 Jan ? 18:04:17 10° N 18:05:19 11° NNW 18:06:21 10° NNW visible
24 Jan ? 13:20:56 10° NNE 13:21:10 11° NNE 13:21:10 11° NNE visible
24 Jan ? 14:56:09 10° NNE 14:57:23 19° NNE 14:57:23 19° NNE visible
24 Jan ? 16:31:45 10° N 16:33:38 18° NNW 16:33:38 18° NNW visible
24 Jan ? 18:07:41 10° N 18:08:38 11° NNW 18:09:36 10° NNW visible
25 Jan ? 13:24:18 10° NNE 13:24:39 12° NNE 13:24:39 12° NNE visible
25 Jan ? 14:59:31 10° NNE 15:00:53 20° N 15:00:53 20° N visible
25 Jan ? 16:35:08 10° N 16:37:07 18° NNW 16:37:07 18° NNW visible
25 Jan ? 18:11:05 10° N 18:11:57 11° NNW 18:12:50 10° NNW visible
26 Jan ? 13:27:39 10° NNE 13:28:09 13° NNE 13:28:09 13° NNE visible
26 Jan ? 15:02:54 10° NNE 15:04:23 21° N 15:04:23 21° N visible
26 Jan ? 16:38:31 10° N 16:40:36 18° NNW 16:40:36 18° NNW visible
26 Jan ? 18:14:30 10° N 18:15:16 10° NNW 18:16:04 10° NNW visible
